sat.trackr.live / text

‹ back to catalog

STARLINK-35288

NORAD 65749 · 2025-216R

PAYLOAD ACTIVE UNKNOWN

§ Identity

Operator
Country
US
Launch date
2025-09-25
Launch site
AFETR
Launch vehicle
Mass (kg)
RCS (m²)

Purposes: comms

External: N2YO · Heavens-Above · Gunter

§ Orbital elements

Epoch: 2026-09-20T05:50:38.344704Z

Period
93.85 min
Inclination
53.1556°
Eccentricity
0.0001461
Mean motion
15.34391314 rev/d
Perigee alt
461.7 km
Apogee alt
463.7 km
Semi-major
6,840.9 km
B*
3.9616e-4
RAAN
146.8714°
Arg perigee
12.8909°
Mean anomaly
347.2131°
Rev number
5,633

§ Raw data

STARLINK-352881 65749U 25216R   26263.24349936  .00013028  00000+0  39616-3 0  99972 65749  53.1556 146.8714 0001461  12.8909 347.2131 15.34391314 56332

JSON: /api/v1/satellites/65749 · /tle

For live sub-satellite position, see the globe view (requires WebGL).

§ Visibility from observer

Set your observer location to see the next 7 days of passes ≥ 10°. The values pass through the URL so the page stays shareable.

No JS? Fill the form by hand. The geolocation button needs JavaScript.